Regional Weather Roundup
Issued by NWS

Home | Current Version | Previous Version | Graphics & Text | Print | Product List | Glossary On
Versions: 1 2 3 4 5 6 7 8 9 10 11 12 13 14 15 16 17 18 19 20 21 22 23 24 25 26 27 28 29 30 31 32 33 34 35 36 37 38 39 40 41 42 43 44 45 46 47 48 49 50
000
ASUS44 KMEG 110210
RWRTN
TENNESSEE HOURLY STATE WEATHER ROUNDUP
NATIONAL WEATHER SERVICE MEMPHIS TN
800 PM CST SUN DEC 10 2017

TNZ002-004-019-021-049-052-054-088>092-110300-
WEST TENNESSEE

CITY           SKY/WX    TMP DP  RH WIND       PRES   REMARKS
MEMPHIS INTL   CLEAR     46  30  53 SW5       30.18S
NWS MEMPHIS      N/A     47 N/A N/A MISG        N/A
JACKSON        CLEAR     44  29  55 SW9       30.17S
DYERSBURG      CLEAR     46  30  53 S5        30.16S
SOMERVILLE     CLEAR     45  28  53 S8G15     30.17S
COVINGTON      CLEAR     45  30  57 SW8       30.17S
UNION CITY     CLEAR     39  27  60 S6        30.14S WCI  35
BOLIVAR        CLEAR     43  28  56 S6        30.18S
PARIS          CLEAR     39  27  60 SW8       30.13S WCI  34
HUNTINGDON     CLEAR     45  27  49 SW6       30.15S
LEXINGTON      CLEAR     39  23  52 S5        30.18S
SAVANNAH       CLEAR     43  27  52 S6        30.20R
$$

TNZ008-025-027-028-033-062-065-066-110300-
NORTH MIDDLE TENNESSEE

CITY           SKY/WX    TMP DP  RH WIND       PRES   REMARKS
NASHVILLE      CLEAR     39  21  48 S7        30.18R WCI  34
PORTLAND       CLEAR     41  21  45 SW8       30.13S
CLARKSVILLE    CLEAR     41  20  43 SW5       30.13S
SMYRNA         CLEAR     37  22  54 S5        30.19R WCI  33
COOKEVILLE     CLEAR     30  23  74 CALM      30.17R
GALLATIN       CLEAR     37  23  56 S5        30.18R WCI  34
CROSSVILLE     CLEAR     33  17  51 SW6       30.15R WCI  28
$$

TNZ061-075-076-078-094-096-097-110300-
SOUTH MIDDLE TENNESSEE

CITY           SKY/WX    TMP DP  RH WIND       PRES   REMARKS
FAYETTEVILLE   CLEAR     41  21  45 SW7       30.19R
TULLAHOMA      CLEAR     37  21  52 SW6       30.18R WCI  33
WINCHESTER     CLEAR     39  21  48 SW5       30.20R
MCMINNVILLE    CLEAR     36  23  60 SW7       30.18R WCI  30
COLUMBIA       CLEAR     39  23  52 SW8       30.17R WCI  34
SHELBYVILLE    CLEAR     36  21  55 CALM      30.19R
$$

TNZ017-018-042-046-047-110300-
NORTHEAST TENNESSEE

CITY           SKY/WX    TMP DP  RH WIND       PRES   REMARKS
TRI CITIES     CLEAR     30  20  66 CALM      30.13S
ELIZABETHTON     N/A     25  21  86 CALM      30.14S
$$

TNZ012-013-036-069-073-074-110300-
CENTRAL EAST TENNESSEE

CITY           SKY/WX    TMP DP  RH WIND       PRES   REMARKS
KNOXVILLE      PTCLDY    37  25  61 SW14      30.16R WCI  28
OAK RIDGE      CLEAR     36  22  56 SW5       30.19R WCI  32
DOWNTOWN KNOXV   N/A     37  23  56 W8        30.18R WCI  31
GATLINBURG     CLEAR     30  23  74 CALM      30.16R
MORRISTOWN     CLEAR     36  19  51 W10       30.14R WCI  28
JACKSBORO      CLEAR     30  23  74 CALM      30.18R
$$

TNZ083-085-099-110300-
SOUTHEAST TENNESSEE

CITY           SKY/WX    TMP DP  RH WIND       PRES   REMARKS
CHATTANOOGA    CLEAR     37  23  56 S3        30.20R
DAYTON         CLOUDY    37  25  60 S3        30.19R
$$

SKY/WX REPORTED AS FAIR MEANS FEW OR NO CLOUDS BELOW
12 THOUSAND FEET.




USA.gov is the U.S. government's official web portal to all federal, state and local government web resources and services.